sat.trackr.live / text

‹ back to catalog

STARLINK-30196

NORAD 57448 · 2023-105U

PAYLOAD ACTIVE UNKNOWN

§ Identity

Operator
Country
US
Launch date
2023-07-24
Launch site
AFETR
Launch vehicle
Mass (kg)
RCS (m²)

Purposes: comms

External: N2YO · Heavens-Above · Gunter

§ Orbital elements

Epoch: 2026-05-24T20:43:20.655264Z

Period
94.27 min
Inclination
43.0016°
Eccentricity
0.0001553
Mean motion
15.27577900 rev/d
Perigee alt
482.0 km
Apogee alt
484.1 km
Semi-major
6,861.2 km
B*
-8.2107e-6
RAAN
192.8891°
Arg perigee
280.3856°
Mean anomaly
79.6820°
Rev number
15,703

§ Raw data

STARLINK-301961 57448U 23105U   26144.86343351 -.00000488  00000+0 -82107-5 0  99932 57448  43.0016 192.8891 0001553 280.3856  79.6820 15.27577900157039

JSON: /api/v1/satellites/57448 · /tle

For live sub-satellite position, see the globe view (requires WebGL).

§ Visibility from observer

Set your observer location to see the next 7 days of passes ≥ 10°. The values pass through the URL so the page stays shareable.

No JS? Fill the form by hand. The geolocation button needs JavaScript.